Bloemfontein, South Africa

5:23 PM SAST on April 24, 2018 (GMT +0200)
Bloemfontein

Weather History for FABL - October, 2013

Change the Weather History Date:

Wednesday, October 9, 2013

  Actual Average Record
Temperature  
Mean Temperature 64 °F -  
Max Temperature 89 °F 79 °F 96 °F (2015)
Min Temperature 39 °F 48 °F 33 °F (2004)
Degree Days  
Heating Degree Days 1    
Growing Degree Days 14 (Base 50)    
Moisture  
Dew Point 14 °F    
Average Humidity 16    
Maximum Humidity 43    
Minimum Humidity 4    
Precipitation  
Precipitation 0.00 in 0.01 in - ()
Sea Level Pressure  
Sea Level Pressure 30.12 in    
Wind  
Wind Speed 3 mph ()    
Max Wind Speed 15 mph    
Max Gust Speed -    
Visibility 10.3 miles    
Events      
Averages and records for this station are not official NWS values.
T = Trace of Precipitation, MM = Missing Value Source: Averaged Metar Reports

Daily Weather History Graph

Daily Weather History Graph

Search for Another Location

Airport or City:

Astronomy

Oct. 09, 2013 Rise Set
Actual Time 5:44 AM SAST 6:20 PM SAST
Civil Twilight 5:20 AM SAST 6:44 PM SAST
Nautical Twilight 4:52 AM SAST 7:12 PM SAST
Astronomical Twilight 4:23 AM SAST 7:41 PM SAST
Moon 8:57 AM SAST (10/9) 10:58 PM SAST (10/9)
Length of Visible Light 13h 24m
Length of Day
12h 36m
Waxing Crescent, 22% of the Moon is Illuminated
Oct 9
Waxing Crescent
Oct 12
First Quarter
Oct 19
Full
Oct 27
Last Quarter
Nov 3
New

Hourly Weather History & Observations

Time (SAST) Temp. Dew Point Humidity Pressure Visibility Wind Dir Wind Speed Gust Speed Precip Events Conditions
12:00 AM 50.0 °F 17.6 °F 28% 30.15 in 6.2 mi Calm Calm - N/A   Unknown
1:00 AM 48.2 °F 17.6 °F 30% 30.15 in 6.2 mi Variable 1.2 mph - N/A   Unknown
2:00 AM 47 °F 14 °F 15%  in - Calm Calm - -  
2:00 AM 46.4 °F 15.8 °F 29% 30.12 in - West 1.2 mph - N/A   Unknown
3:00 AM 44.6 °F 19.4 °F 37% 30.12 in 6.2 mi SW 2.3 mph - N/A   Unknown
4:00 AM 44.6 °F 23.0 °F 43% 30.12 in 5.0 mi South 2.3 mph - N/A   Unknown
5:00 AM 42 °F 17 °F 23%  in 19 mi Calm Calm - -  
5:00 AM 41.0 °F 17.6 °F 39% 30.12 in - Calm Calm - N/A   Clear
6:00 AM 41.0 °F 17.6 °F 39% 30.12 in - Calm Calm - N/A   Clear
6:36 AM 48.2 °F 21.2 °F 34% 30.15 in - Calm Calm - N/A   Clear
6:51 AM 51.8 °F 21.2 °F 30% 30.15 in - Calm Calm - N/A   Clear
7:00 AM 51.8 °F 21.2 °F 30% 30.15 in - Calm Calm - N/A   Clear
7:08 AM 55.4 °F 17.6 °F 23% 30.15 in - Calm Calm - N/A   Clear
7:43 AM 60.8 °F 17.6 °F 19% 30.15 in - Variable 1.2 mph - N/A   Clear
8:00 AM 64 °F 11 °F 5%  in 19 mi Calm Calm - -  
8:00 AM 64.4 °F 12.2 °F 13% 30.15 in - East 1.2 mph - N/A   Clear
8:45 AM 68.0 °F 19.4 °F 16% 30.15 in - ENE 4.6 mph - N/A   Clear
9:00 AM 69.8 °F 19.4 °F 15% 30.15 in - NNE 4.6 mph - N/A   Clear
9:12 AM 73.4 °F 19.4 °F 13% 30.15 in - NE 5.8 mph - N/A   Clear
9:47 AM 78.8 °F 21.2 °F 12% 30.15 in - NNE 5.8 mph - N/A   Clear
10:00 AM 78.8 °F 21.2 °F 12% 30.15 in - NNE 5.8 mph - N/A   Clear
10:41 AM 84.2 °F 19.4 °F 9% 30.15 in - NW 9.2 mph - N/A   Clear
11:00 AM 82 °F 5 °F 4%  in 19 mi WSW 8.1 mph - -  
11:00 AM 80.6 °F 5.0 °F 6% 30.15 in - WSW 6.9 mph - N/A   Clear
12:00 PM 84.2 °F 17.6 °F 8% 30.12 in - West 8.1 mph - N/A   Clear
1:00 PM 86.0 °F 17.6 °F 8% 30.12 in - West 12.7 mph - N/A   Clear
2:00 PM 88 °F -2 °F 4%  in - SSW 6.9 mph - -  
2:00 PM 87.8 °F -2.2 °F 4% 30.06 in - SSW 6.9 mph - N/A   Unknown
3:00 PM 89.6 °F 17.6 °F 7% 30.06 in - West 13.8 mph - N/A   Clear
4:00 PM 87.8 °F 15.8 °F 7% 30.06 in - West 15.0 mph - N/A   Clear
5:00 PM 86 °F -3 °F 4%  in 25 mi WSW 9.2 mph - -  
5:00 PM 86.0 °F -2.2 °F 4% 30.06 in - WSW 8.1 mph - N/A   Clear
6:00 PM 84.2 °F 15.8 °F 8% 30.06 in - WSW 9.2 mph - N/A   Clear
7:00 PM 77.0 °F 12.2 °F 9% 30.06 in - WSW 4.6 mph - N/A   Clear
8:00 PM 75 °F 3 °F 4%  in - WSW 6.9 mph - -  
8:00 PM 71.6 °F 15.8 °F 12% 30.09 in - WSW 9.2 mph - N/A   Clear
9:00 PM 68.0 °F 12.2 °F 12% 30.12 in 6.2 mi WSW 10.4 mph - N/A   Unknown
10:00 PM 62.6 °F 12.2 °F 14% 30.09 in 6.2 mi South 4.6 mph - N/A   Unknown
11:00 PM 61 °F 4 °F 4%  in - South 5.8 mph - -  
11:00 PM 60.8 °F 5.0 °F 11% 30.12 in - South 4.6 mph - N/A   Unknown